Bookmark and Share
Track history (hours):
 

Doris Moran

More information available from US FCC via Universal Licensing System and Coast Guard Vessel Documentation Center.

Last reported at 2014-Apr-24 08:33 UTC. Time now 2014-Apr-24 09:11 UTC.
Position N 41°18' W 072°54'.

Length 151 m; draft 15 m.

Type: Other ship. MMSI: 366939790.

NotesDate/timePositionNaut miles runAvg speedWind from/ knotsBaromVisibWave heightAir tempDewpointWater temp
2014-Apr-24 08:33N 41°18' W 072°54'0 0.0
2014-Apr-24 07:33N 41°18' W 072°54'0 0.0
2014-Apr-24 06:03N 41°18' W 072°54'0 0.0
2014-Apr-24 05:14N 41°18' W 072°54'0 0.0
2014-Apr-24 04:33N 41°18' W 072°54'0 0.0
2014-Apr-24 03:31N 41°18' W 072°54'0 0.0
2014-Apr-24 02:33N 41°18' W 072°54'0 0.0
2014-Apr-24 01:32N 41°18' W 072°54'0 0.0
2014-Apr-24 00:32N 41°18' W 072°54'0 0.0
2014-Apr-23 23:33N 41°18' W 072°54'0 0.0
2014-Apr-23 22:22N 41°18' W 072°54'0 0.0
2014-Apr-23 21:33N 41°18' W 072°54'0 0.0
2014-Apr-23 19:13N 41°18' W 072°54'0 0.0
2014-Apr-23 18:19N 41°18' W 072°54'0 0.0
2014-Apr-23 17:25N 41°18' W 072°54'0 0.0
2014-Apr-23 16:32N 41°18' W 072°54'0 0.0
2014-Apr-23 15:31N 41°18' W 072°54'0 0.0
2014-Apr-23 14:03N 41°18' W 072°54'0 0.0
2014-Apr-23 13:30N 41°18' W 072°54'0 0.0
2014-Apr-23 12:21N 41°18' W 072°54'0 0.0
2014-Apr-23 11:11N 41°18' W 072°54'0 0.0
2014-Apr-23 10:32N 41°18' W 072°54'4 4.2
2014-Apr-23 09:33N 41°14' W 072°55'6 5.9
2014-Apr-23 08:32N 41°09' W 072°59'6 6.5
2014-Apr-23 07:33N 41°05' W 073°07'8 8.2
2014-Apr-23 06:33N 41°03' W 073°17'9 9.0
2014-Apr-23 05:33N 40°59' W 073°28'20 8.7
2014-Apr-23 03:12N 40°48' W 073°51'6 6.8
2014-Apr-23 02:23N 40°46' W 073°57'5 6.0
2014-Apr-23 01:33N 40°41' W 074°00'1 1.5
2014-Apr-23 00:33N 40°43' W 074°01'  
2014-Apr-18 01:24N 41°10' W 073°55'27 9.3
2014-Apr-17 22:33N 40°44' W 074°01'5 5.3
2014-Apr-17 21:33N 40°47' W 073°55'7 6.5
2014-Apr-17 20:30N 40°49' W 073°47'22 4.4
2014-Apr-17 15:33N 41°01' W 073°23'2411.7
2014-Apr-17 13:32N 41°05' W 072°52'1111.5
2014-Apr-17 12:34N 41°08' W 072°37'1111.3
2014-Apr-17 11:34N 41°11' W 072°23'1110.5
2014-Apr-17 10:33N 41°14' W 072°09'9 9.1
2014-Apr-17 09:34N 41°15' W 071°57'10 9.7
2014-Apr-17 08:34N 41°16' W 071°45'1010.2
2014-Apr-17 07:33N 41°18' W 071°31'1110.7
2014-Apr-17 06:34N 41°20' W 071°17'1111.0
2014-Apr-17 05:33N 41°24' W 071°04'59 7.0
2014-Apr-16 21:09N 42°23' W 070°51'5 7.5
2014-Apr-16 20:31N 42°21' W 070°56'5 5.3
2014-Apr-16 19:33N 42°23' W 071°03'1 0.7
2014-Apr-16 18:33N 42°23' W 071°04'0 0.0
2014-Apr-16 17:33N 42°23' W 071°04'0 0.0
2014-Apr-16 16:33N 42°23' W 071°04'0 0.0
2014-Apr-16 15:33N 42°23' W 071°04'0 0.0
2014-Apr-16 14:33N 42°23' W 071°04'0 0.0
2014-Apr-16 13:33N 42°23' W 071°04'0 0.0
2014-Apr-16 12:33N 42°23' W 071°04'0 0.0
2014-Apr-16 11:33N 42°23' W 071°04'0 0.0
2014-Apr-16 10:33N 42°23' W 071°04'0 0.0
2014-Apr-16 09:33N 42°23' W 071°04'0 0.0
2014-Apr-16 08:33N 42°23' W 071°04'0 0.0
2014-Apr-16 07:33N 42°23' W 071°04'0 0.0
2014-Apr-16 06:33N 42°23' W 071°04'0 0.0
2014-Apr-16 05:33N 42°23' W 071°04'0 0.0
2014-Apr-16 04:33N 42°23' W 071°04'0 0.0
2014-Apr-16 03:33N 42°23' W 071°04'0 0.0
2014-Apr-16 02:16N 42°23' W 071°04'0 0.0
2014-Apr-16 01:33N 42°23' W 071°04'0 0.0
2014-Apr-16 00:33N 42°23' W 071°04'0 0.0
2014-Apr-15 23:33N 42°23' W 071°04'0 0.0
2014-Apr-15 22:33N 42°23' W 071°04'0 0.0
2014-Apr-15 21:33N 42°23' W 071°04'0 0.0
2014-Apr-15 20:33N 42°23' W 071°04'0 0.0
2014-Apr-15 19:32N 42°23' W 071°04'0 0.0
2014-Apr-15 18:31N 42°23' W 071°04'0 0.0
2014-Apr-15 17:33N 42°23' W 071°04'0 0.0
2014-Apr-15 16:33N 42°23' W 071°04'0 0.0
2014-Apr-15 15:33N 42°23' W 071°04'0 0.0
2014-Apr-15 14:33N 42°23' W 071°04'0 0.0
2014-Apr-15 12:34N 42°23' W 071°04'0 0.0
2014-Apr-15 11:34N 42°23' W 071°04'0 0.1
2014-Apr-15 10:31N 42°23' W 071°04'0 0.0
2014-Apr-15 08:33N 42°23' W 071°04'0 0.0
2014-Apr-15 05:33N 42°23' W 071°04'0 0.0
2014-Apr-15 02:34N 42°23' W 071°04'0 0.0
2014-Apr-15 00:33N 42°23' W 071°04'0 0.0
2014-Apr-14 23:33N 42°23' W 071°04'0 0.0
2014-Apr-14 22:32N 42°23' W 071°04'0 0.0
2014-Apr-14 21:32N 42°23' W 071°04'0 0.0
2014-Apr-14 20:34N 42°23' W 071°04'0 0.0
2014-Apr-14 19:34N 42°23' W 071°04'0 0.0
2014-Apr-14 18:33N 42°23' W 071°04'0 0.0
2014-Apr-14 17:34N 42°23' W 071°04'0 0.0
2014-Apr-14 16:32N 42°23' W 071°04'0 0.0
2014-Apr-14 14:32N 42°23' W 071°04'1 1.3
2014-Apr-14 13:34N 42°22' W 071°03'14 6.9
2014-Apr-14 11:34N 42°20' W 070°44'9 8.9
2014-Apr-14 10:34N 42°14' W 070°35'  

Dump ship's entire track history

sailing weather and tide predictions

Doris Moran — WRU2125 — position and weather